Weather History for Gwinn, MI

Change the Weather History Date:

Wednesday, February 27, 2013

  Actual Average (KESC) Record (KESC)
Temperature  
Mean Temperature 29 °F -  
Max Temperature 30 °F 30 °F 40 °F (1958)
Min Temperature 28 °F 12 °F -20 °F (2014)
Degree Days  
Heating Degree Days 36    
Moisture  
Dew Point 26 °F    
Average Humidity 89    
Maximum Humidity 94    
Minimum Humidity 81    
Precipitation  
Precipitation 0.00 in - - ()
Sea Level Pressure  
Sea Level Pressure 29.80 in    
Wind  
Wind Speed 18 mph (NE)    
Max Wind Speed 29 mph    
Max Gust Speed 34 mph    
Visibility 6 miles    
Events Snow    
Averages and records for this station are not official NWS values.
T = Trace of Precipitation, MM = Missing Value Source: NWS Daily Summary

Daily Weather History Graph

Daily Weather History Graph

Search for Another Location

Airport:

Trip Planner

Search our weather history database for the weather conditions in past years. The results will help you decide how hot, cold, wet, or windy it might be!

Date:

Astronomy

Feb. 27, 2013 Rise Set
Actual Time 7:31 AM EST 6:33 PM EST
Civil Twilight 7:01 AM EST 7:03 PM EST
Nautical Twilight 6:26 AM EST 7:38 PM EST
Astronomical Twilight 5:52 AM EST 8:13 PM EST
Moon 9:05 PM EST (2/27) 7:57 AM EST (2/27)
Length of Visible Light 12h 01m
Length of Day
11h 01m
Waning Gibbous, 96% of the Moon is Illuminated
Feb 27
Waning Gibbous
Mar 4
Last Quarter
Mar 11
New
Mar 19
First Quarter
Mar 27
Full

Hourly Weather History & Observations

Time (EST) Temp. Windchill Dew Point Humidity Pressure Visibility Wind Dir Wind Speed Gust Speed Precip Events Conditions
12:16 AM 28.9 °F 16.5 °F 23.9 °F 81% 29.87 in 10.0 mi NE 18.4 mph - N/A   Overcast
12:37 AM 28.4 °F 16.2 °F 23.9 °F 83% 29.85 in 10.0 mi NE 17.3 mph - N/A   Overcast
12:56 AM 28.4 °F 16.6 °F 24.3 °F 84% 29.85 in 10.0 mi NE 16.1 mph 21.9 mph N/A   Overcast
1:16 AM 28.4 °F 17.0 °F 24.4 °F 85% 29.85 in 10.0 mi NE 15.0 mph - N/A   Overcast
1:37 AM 28.4 °F 18.0 °F 24.4 °F 85% 29.84 in 10.0 mi NE 12.7 mph 19.6 mph N/A   Overcast
1:56 AM 28.4 °F 17.0 °F 24.4 °F 85% 29.84 in 10.0 mi NE 15.0 mph 20.7 mph N/A   Overcast
2:17 AM 28.4 °F 18.0 °F 24.6 °F 86% 29.83 in 10.0 mi NNE 12.7 mph - N/A   Overcast
2:37 AM 28.4 °F 17.0 °F 25.0 °F 87% 29.82 in 10.0 mi NNE 15.0 mph 19.6 mph N/A   Overcast
2:56 AM 28.8 °F 17.0 °F 25.3 °F 87% 29.82 in 10.0 mi NE 16.1 mph - N/A   Overcast
3:17 AM 28.6 °F 16.4 °F 25.2 °F 87% 29.82 in 10.0 mi NNE 17.3 mph - N/A   Overcast
3:37 AM 28.4 °F 15.4 °F 25.3 °F 88% 29.80 in 10.0 mi NNE 19.6 mph 24.2 mph N/A   Overcast
3:56 AM 28.4 °F 16.2 °F 25.3 °F 88% 29.80 in 10.0 mi NE 17.3 mph 23.0 mph N/A   Overcast
4:17 AM 28.8 °F 16.2 °F 25.7 °F 88% 29.79 in 10.0 mi NE 18.4 mph 21.9 mph N/A   Overcast
4:37 AM 28.9 °F 15.8 °F 25.7 °F 88% 29.78 in 10.0 mi NE 20.7 mph 28.8 mph N/A   Overcast
4:56 AM 28.9 °F 15.8 °F 25.7 °F 88% 29.78 in 10.0 mi NNE 20.7 mph 26.5 mph N/A   Overcast
5:17 AM 28.9 °F 15.8 °F 25.7 °F 88% 29.79 in 10.0 mi NE 20.7 mph 24.2 mph N/A   Overcast
5:37 AM 28.9 °F 16.9 °F 25.7 °F 88% 29.78 in 10.0 mi NNE 17.3 mph 24.2 mph N/A   Overcast
5:57 AM 29.1 °F 16.7 °F 25.9 °F 88% 29.78 in 10.0 mi NNE 18.4 mph 25.3 mph N/A   Overcast
6:55 AM 28.4 °F 15.4 °F 24.8 °F 86% 29.77 in 10.0 mi NNE 19.6 mph 31.1 mph N/A   Overcast
7:55 AM 28.4 °F 14.7 °F 26.6 °F 93% 29.77 in 10.0 mi NE 21.9 mph 29.9 mph N/A   Overcast
8:25 AM 28.4 °F 16.2 °F 26.6 °F 93% 29.77 in 2.0 mi NNE 17.3 mph 27.6 mph N/A Snow Light Snow
8:36 AM 28.4 °F 15.1 °F 26.6 °F 93% 29.77 in 1.0 mi NE 20.7 mph 29.9 mph N/A Snow Light Snow
8:51 AM 28.4 °F 14.4 °F 26.6 °F 93% 29.77 in 1.0 mi NNE 23.0 mph 28.8 mph N/A Snow Light Snow
9:50 AM 30.2 °F 17.8 °F 26.6 °F 86% 29.77 in 1.0 mi NE 19.6 mph 25.3 mph N/A Snow Light Snow
10:50 AM 28.4 °F 16.6 °F 26.6 °F 93% 29.76 in 3.0 mi NE 16.1 mph 27.6 mph N/A Snow Light Snow
11:50 AM 30.2 °F 17.8 °F 26.6 °F 86% 29.75 in 3.0 mi NE 19.6 mph 26.5 mph N/A Snow Light Snow
12:50 PM 30.2 °F 17.4 °F 26.6 °F 86% 29.74 in 3.0 mi NE 20.7 mph 28.8 mph N/A Snow Light Snow
1:50 PM 30.2 °F 18.1 °F 26.6 °F 86% 29.73 in 1.8 mi NE 18.4 mph 25.3 mph N/A Snow Light Snow
2:50 PM 30.2 °F 17.8 °F 28.4 °F 93% 29.74 in 0.5 mi NE 19.6 mph 27.6 mph N/A Snow Light Snow
3:50 PM 30.2 °F 16.5 °F 28.4 °F 93% 29.74 in 1.5 mi NNE 24.2 mph 32.2 mph N/A Snow Snow
4:50 PM 30.2 °F 16.2 °F 28.4 °F 93% 29.75 in 0.5 mi NNE 25.3 mph 34.5 mph N/A Snow Light Snow
5:50 PM 30.2 °F 16.5 °F 28.4 °F 93% 29.76 in 0.8 mi NNE 24.2 mph 32.2 mph N/A Snow Light Snow
6:50 PM 30.2 °F 17.1 °F 28.4 °F 93% 29.79 in 1.2 mi NNE 21.9 mph 33.4 mph N/A Snow Light Snow
7:50 PM 30.2 °F 16.2 °F 28.4 °F 93% 29.80 in 1.2 mi NNE 25.3 mph 32.2 mph N/A Snow Light Snow
8:50 PM 30.2 °F 17.4 °F 28.4 °F 93% 29.82 in 1.2 mi NNE 20.7 mph 28.8 mph N/A Snow Light Snow
9:45 PM 30.2 °F 17.4 °F 28.4 °F 93% 29.82 in 1.0 mi NNE 20.7 mph 34.5 mph N/A Snow Light Snow
10:16 PM 30.2 °F 15.4 °F 28.8 °F 94% 29.82 in 1.5 mi NNE 28.8 mph 34.5 mph N/A Snow Light Snow
10:37 PM 30.0 °F 16.3 °F 28.4 °F 94% 29.82 in 1.5 mi NNE 24.2 mph 34.5 mph N/A Snow Light Snow
10:57 PM 30.2 °F 17.8 °F 28.4 °F 93% 29.83 in 3.0 mi NNE 19.6 mph 31.1 mph N/A Snow Light Snow
11:16 PM 30.2 °F 16.8 °F 28.4 °F 93% 29.83 in 4.0 mi NNE 23.0 mph 28.8 mph N/A Snow Light Snow
11:37 PM 30.2 °F 18.1 °F 28.4 °F 93% 29.83 in 5.0 mi NE 18.4 mph 27.6 mph N/A Snow Light Snow
11:56 PM 30.2 °F 18.5 °F 28.0 °F 92% 29.83 in 4.0 mi NNE 17.3 mph 34.5 mph N/A   Overcast